EGNVEGNM

Guest
Details From EGNV - Durham Tees Valley
To EGNM - Leeds Bradford
Flight Number -
Tags generated
Created
Modified
Stats Distance 40 nm / 74 km
Max Altitude 0 ft / 0 m
Waypoints 3
Social Downloads 1
Likes 0
Share VATSIM

Download

Looking for another format? Having issues loading an existing format? Contact us
Advertisement - Login to hide

Notes

Basic altitude profile: - Ascent Rate: 100ft/min - Ascent Speed: 80kts - Cruise Altitude: 4000ft - Cruise Speed: 80kts - Descent Rate: 100ft/min - Descent Speed: 70kts Options: - Use NATs: yes - Use PACOTS: no - Use low airways: yes - Use high airways: no

Route

EGNV LBA EGNM

ID Type Via Altitude Latitude Longitude Leg Dist Tot Dist Heading (true) Name
O EGNV APT - 0 ft / 0 m 54.50919˚ -1.42943˚ - 0 nm - Durham Tees Valley
LBA NDB - 0 ft / 0 m 53.86499˚ -1.65289˚ 39 nm 39 nm 192° / 191° LEEDS BRADFORD NDB
O EGNM APT - 0 ft / 0 m 53.86603˚ -1.66078˚ 0 nm 39 nm 283° / 283° Leeds Bradford

Altitude Profile

Advertisement - Login to hide

EGNV

Details ICAO EGNV (MME)
Name Durham Tees Valley
Region United Kingdom
Timezone Europe/London (UTC+0.0)
Stats Elevation 120 ft / 37 m (AMSL)
Location 54.509191° -1.429433°
Runways 1
Magnetic Variation 1.299° W

METAR

EGNV 161720Z 27004KT CAVOK M01/M03 Q1018

Decode

TAF

Not found

Departure Runways

ID Width Length Bearing (true) Bearing (mag) Surface Threshold Offset Overrun Length
05 148 ft / 45 m 7,501 ft / 2,286 m 47.37° 48.67° Asphalt 0 ft / 0 m 400 ft / 122 m
23 148 ft / 45 m 7,501 ft / 2,286 m 227.39° 228.69° Asphalt 0 ft / 0 m 0 ft / 0 m

EGNM

Details ICAO EGNM (LBA)
Name Leeds Bradford
Region United Kingdom
Timezone Europe/London (UTC+0.0)
Stats Elevation 681 ft / 208 m (AMSL)
Location 53.866027° -1.660778°
Runways 1
Magnetic Variation 1.297° W

METAR

EGNM 161720Z 27008KT 250V350 CAVOK M00/M01 Q1018

Decode

TAF

TAF TAF EGNM 161056Z 1612/1712 27008KT 9999 SCT035 BECMG 1704/1707 7000 -RA BKN010 TEMPO 1707/1712 4000 RADZ BKN006

Decode

Destination Runways

ID Width Length Bearing (true) Bearing (mag) Surface Threshold Offset Overrun Length
14 151 ft / 46 m 7,377 ft / 2,248 m 137.79° 139.09° Concrete 1,024 ft / 312 m 46 ft / 14 m
32 151 ft / 46 m 7,377 ft / 2,248 m 317.81° 319.11° Concrete 899 ft / 274 m 49 ft / 15 m

Approach Navaids

Runway Type Ident Frequency Range Bearing (true) Bearing (mag) Slope Elevation
14 Localiser ILBF 110.90 MHz 18 nm / 33 km 137.73° 139.02° - 681 ft / 208 m (AMSL)
14 Glidescope ILBF 110.90 MHz 10 nm / 19 km 137.80° 139.09° 3.50° 681 ft / 208 m (AMSL)
14 DME ILBF 110.90 MHz 18 nm / 33 km - - - 681 ft / 208 m (AMSL)
32 Localiser ILF 110.90 MHz 18 nm / 33 km 317.80° 319.09° - 681 ft / 208 m (AMSL)
32 Glidescope ILF 110.90 MHz 10 nm / 19 km 317.80° 319.09° 3.00° 681 ft / 208 m (AMSL)
32 DME ILF 110.90 MHz 18 nm / 33 km - - - 687 ft / 209 m (AMSL)

Popular Alternatives